AAL1533 MDPP-KMIA

Flight info

Callsign AAL1533
Flight time 1h 44m
Altitude 36000
Route MALVN Y261 MADIZ VIICE2
Aircraft B38M/M-SDE1FGHILORVWXY/HB1

Departure

Time 2026-05-06 19:53
Airport Gregorio Luperon International Airport (MDPP)

Arrival

Time 2026-05-06 21:37
Airport Miami International Airport (KMIA)
Time Latitude Longitude Altitude Speed Heading
2026-05-06 19:30 19.75600 -70.56481 37 ft 0 kts 163°
2026-05-06 19:44 19.75603 -70.56482 37 ft 3 kts 163°
2026-05-06 19:44 19.75629 -70.56492 37 ft 4 kts 161°
2026-05-06 19:44 19.75651 -70.56498 37 ft 4 kts 172°
2026-05-06 19:45 19.75674 -70.56493 35 ft 4 kts 219°
2026-05-06 19:45 19.75690 -70.56472 37 ft 4 kts 248°
2026-05-06 19:45 19.75693 -70.56462 37 ft 0 kts 253°
2026-05-06 19:48 19.75688 -70.56482 36 ft 7 kts 253°
2026-05-06 19:48 19.75662 -70.56573 37 ft 17 kts 253°
2026-05-06 19:48 19.75621 -70.56706 37 ft 20 kts 253°
2026-05-06 19:49 19.75576 -70.56857 36 ft 23 kts 252°
2026-05-06 19:49 19.75533 -70.57016 36 ft 19 kts 269°
2026-05-06 19:49 19.75597 -70.57118 35 ft 17 kts 314°
2026-05-06 19:49 19.75687 -70.57224 31 ft 21 kts 296°
2026-05-06 19:50 19.75674 -70.57386 30 ft 25 kts 252°
2026-05-06 19:50 19.75615 -70.57572 30 ft 28 kts 251°
2026-05-06 19:50 19.75559 -70.57770 32 ft 28 kts 253°
2026-05-06 19:50 19.75498 -70.57972 33 ft 29 kts 251°
2026-05-06 19:51 19.75437 -70.58181 34 ft 30 kts 252°
2026-05-06 19:51 19.75385 -70.58340 33 ft 14 kts 232°
2026-05-06 19:51 19.75369 -70.58388 33 ft 3 kts 306°
2026-05-06 19:51 19.75398 -70.58380 33 ft 7 kts 59°
2026-05-06 19:52 19.75413 -70.58298 33 ft 17 kts 71°
2026-05-06 19:52 19.75519 -70.57922 33 ft 93 kts 72°
2026-05-06 19:52 19.75779 -70.57022 34 ft 159 kts 75°
2026-05-06 19:52 19.76153 -70.55825 590 ft 174 kts 76°
2026-05-06 19:53 19.76638 -70.54626 1464 ft 181 kts 64°
2026-05-06 19:53 19.77408 -70.53517 2039 ft 203 kts 49°
2026-05-06 19:53 19.78761 -70.52798 2414 ft 241 kts
2026-05-06 19:53 19.80458 -70.53155 3063 ft 260 kts 336°
2026-05-06 19:54 19.82023 -70.54195 3806 ft 273 kts 312°
2026-05-06 19:54 19.83176 -70.55847 4542 ft 284 kts 304°
2026-05-06 19:54 19.84374 -70.57514 5608 ft 283 kts 305°
2026-05-06 19:54 19.85563 -70.59177 6608 ft 283 kts 306°
2026-05-06 19:55 19.86750 -70.60848 7526 ft 285 kts 306°
2026-05-06 19:55 19.87942 -70.62536 8434 ft 287 kts 306°
2026-05-06 19:55 19.89146 -70.64243 9354 ft 289 kts 306°
2026-05-06 19:55 19.90357 -70.65962 10242 ft 293 kts 305°
2026-05-06 19:56 19.91613 -70.67745 10733 ft 310 kts 306°
2026-05-06 19:56 19.92947 -70.69640 11084 ft 331 kts 306°
2026-05-06 19:56 19.94358 -70.71645 11544 ft 345 kts 306°
2026-05-06 19:56 19.95720 -70.73580 12153 ft 350 kts 306°
2026-05-06 19:57 19.97183 -70.75660 12930 ft 353 kts 306°
2026-05-06 19:57 19.98659 -70.77761 13680 ft 356 kts 306°
2026-05-06 19:57 20.00152 -70.79884 14387 ft 359 kts 306°
2026-05-06 19:57 20.01648 -70.82013 15133 ft 360 kts 306°
2026-05-06 19:58 20.03146 -70.84147 15850 ft 361 kts 306°
2026-05-06 19:58 20.04660 -70.86303 16488 ft 365 kts 306°
2026-05-06 19:58 20.06185 -70.88476 17138 ft 368 kts 306°
2026-05-06 19:58 20.07719 -70.90664 17765 ft 371 kts 306°
2026-05-06 19:59 20.09272 -70.92878 18367 ft 374 kts 306°
2026-05-06 19:59 20.10832 -70.95103 18900 ft 376 kts 307°
2026-05-06 19:59 20.12400 -70.97340 19425 ft 379 kts 307°
2026-05-06 19:59 20.13959 -70.99567 19930 ft 382 kts 307°
2026-05-06 20:00 20.15550 -71.01838 20440 ft 384 kts 307°
2026-05-06 20:00 20.17155 -71.04132 20945 ft 387 kts 307°
2026-05-06 20:00 20.18765 -71.06433 21442 ft 390 kts 307°
2026-05-06 20:00 20.20391 -71.08759 21935 ft 392 kts 308°
2026-05-06 20:01 20.22027 -71.11099 22419 ft 395 kts 308°
2026-05-06 20:01 20.23677 -71.13460 22897 ft 398 kts 308°
2026-05-06 20:01 20.25335 -71.15834 23355 ft 401 kts 308°
2026-05-06 20:01 20.27005 -71.18225 23788 ft 404 kts 308°
2026-05-06 20:02 20.28688 -71.20638 24205 ft 405 kts 308°
2026-05-06 20:02 20.30373 -71.23052 24608 ft 407 kts 308°
2026-05-06 20:02 20.32066 -71.25481 25000 ft 409 kts 308°
2026-05-06 20:02 20.33745 -71.27890 25395 ft 411 kts 308°
2026-05-06 20:03 20.35449 -71.30335 25796 ft 413 kts 309°
2026-05-06 20:03 20.37164 -71.32797 26180 ft 415 kts 309°
2026-05-06 20:03 20.38885 -71.35270 26568 ft 416 kts 309°
2026-05-06 20:03 20.40620 -71.37763 26953 ft 418 kts 309°
2026-05-06 20:04 20.42282 -71.40317 27326 ft 421 kts 306°
2026-05-06 20:04 20.43906 -71.42921 27684 ft 423 kts 306°
2026-05-06 20:04 20.45548 -71.45534 28032 ft 425 kts 307°
2026-05-06 20:04 20.47199 -71.48155 28379 ft 427 kts 307°
2026-05-06 20:05 20.48861 -71.50794 28721 ft 429 kts 307°
2026-05-06 20:05 20.50529 -71.53443 29066 ft 431 kts 307°
2026-05-06 20:05 20.52208 -71.56109 29385 ft 433 kts 307°
2026-05-06 20:05 20.53893 -71.58786 29722 ft 435 kts 307°
2026-05-06 20:06 20.55585 -71.61476 30030 ft 437 kts 307°
2026-05-06 20:06 20.57283 -71.64176 30292 ft 439 kts 307°
2026-05-06 20:06 20.58990 -71.66891 30546 ft 441 kts 307°
2026-05-06 20:06 20.60703 -71.69618 30811 ft 443 kts 307°
2026-05-06 20:07 20.62424 -71.72358 31069 ft 445 kts 308°
2026-05-06 20:07 20.64129 -71.75075 31367 ft 446 kts 308°
2026-05-06 20:07 20.65853 -71.77824 31707 ft 446 kts 308°
2026-05-06 20:07 20.67579 -71.80576 32066 ft 445 kts 308°
2026-05-06 20:08 20.69296 -71.83316 32438 ft 444 kts 308°
2026-05-06 20:08 20.71009 -71.86051 32809 ft 443 kts 309°
2026-05-06 20:08 20.72723 -71.88788 33194 ft 442 kts 309°
2026-05-06 20:08 20.74429 -71.91515 33581 ft 441 kts 309°
2026-05-06 20:09 20.76134 -71.94242 33934 ft 440 kts 309°
2026-05-06 20:09 20.77836 -71.96965 34042 ft 439 kts 309°
2026-05-06 20:09 20.81212 -72.02368 34036 ft 436 kts 309°
2026-05-06 20:10 20.84579 -72.07764 34032 ft 436 kts 309°
2026-05-06 20:10 20.87950 -72.13169 34031 ft 436 kts 309°
2026-05-06 20:11 20.91317 -72.18574 34027 ft 437 kts 309°
2026-05-06 20:11 20.94662 -72.23949 34029 ft 437 kts 309°
2026-05-06 20:12 20.98024 -72.29356 34027 ft 437 kts 309°
2026-05-06 20:12 21.01392 -72.34777 34033 ft 436 kts 309°
2026-05-06 20:13 21.04753 -72.40192 34028 ft 437 kts 309°
2026-05-06 20:13 21.08117 -72.45618 34032 ft 437 kts 309°
2026-05-06 20:14 21.11460 -72.51015 34034 ft 437 kts 309°
2026-05-06 20:14 21.14824 -72.56450 34034 ft 437 kts 308°
2026-05-06 20:15 21.18183 -72.61888 34032 ft 438 kts 308°
2026-05-06 20:15 21.21541 -72.67334 34035 ft 438 kts 308°
2026-05-06 20:16 21.24901 -72.72787 34035 ft 438 kts 308°
2026-05-06 20:16 21.28256 -72.78237 34037 ft 438 kts 308°
2026-05-06 20:17 21.31611 -72.83692 34030 ft 438 kts 308°
2026-05-06 20:17 21.34950 -72.89127 34030 ft 438 kts 308°
2026-05-06 20:18 21.38303 -72.94591 34030 ft 438 kts 308°
2026-05-06 20:18 21.41658 -73.00061 34029 ft 439 kts 308°
2026-05-06 20:19 21.45014 -73.05540 34039 ft 439 kts 308°
2026-05-06 20:19 21.48365 -73.11016 34033 ft 439 kts 308°
2026-05-06 20:20 21.51153 -73.15576 34037 ft 439 kts 308°
2026-05-06 20:20 21.55046 -73.21950 34037 ft 439 kts 307°
2026-05-06 20:21 21.57852 -73.26548 34036 ft 439 kts 307°
2026-05-06 20:21 21.61196 -73.32034 34048 ft 439 kts 307°
2026-05-06 20:22 21.64544 -73.37530 34037 ft 439 kts 307°
2026-05-06 20:22 21.67885 -73.43023 34047 ft 439 kts 307°
2026-05-06 20:23 21.71211 -73.48494 34042 ft 439 kts 307°
2026-05-06 20:23 21.74551 -73.53995 34039 ft 439 kts 307°
2026-05-06 20:24 21.77888 -73.59497 34043 ft 439 kts 307°
2026-05-06 20:24 21.81227 -73.65007 34044 ft 439 kts 307°
2026-05-06 20:25 21.84567 -73.70524 34048 ft 439 kts 307°
2026-05-06 20:25 21.87900 -73.76035 34046 ft 439 kts 307°
2026-05-06 20:26 21.91228 -73.81545 34039 ft 439 kts 307°
2026-05-06 20:26 21.94564 -73.87073 34043 ft 440 kts 307°
2026-05-06 20:27 21.97895 -73.92598 34045 ft 439 kts 307°
2026-05-06 20:27 22.01226 -73.98128 34043 ft 439 kts 306°
2026-05-06 20:28 22.04554 -74.03659 34048 ft 440 kts 306°
2026-05-06 20:28 22.07879 -74.09192 34037 ft 440 kts 306°
2026-05-06 20:29 22.11183 -74.14695 34052 ft 440 kts 306°
2026-05-06 20:29 22.14506 -74.20235 34040 ft 440 kts 306°
2026-05-06 20:30 22.19492 -74.28558 34047 ft 440 kts 306°
2026-05-06 20:31 22.22813 -74.34110 34044 ft 440 kts 306°
2026-05-06 20:31 22.26136 -74.39671 34049 ft 440 kts 306°
2026-05-06 20:32 22.29454 -74.45227 34053 ft 441 kts 306°
2026-05-06 20:32 22.32781 -74.50806 34047 ft 441 kts 306°
2026-05-06 20:33 22.36098 -74.56375 34039 ft 441 kts 306°
2026-05-06 20:33 22.39420 -74.61956 34044 ft 441 kts 306°
2026-05-06 20:34 22.42739 -74.67539 34058 ft 442 kts 306°
2026-05-06 20:34 22.46039 -74.73096 34060 ft 442 kts 306°
2026-05-06 20:35 22.49357 -74.78688 34049 ft 442 kts 306°
2026-05-06 20:35 22.52674 -74.84286 34057 ft 442 kts 306°
2026-05-06 20:36 22.55991 -74.89890 34053 ft 442 kts 306°
2026-05-06 20:36 22.59306 -74.95495 34053 ft 442 kts 306°
2026-05-06 20:37 22.62620 -75.01105 34051 ft 442 kts 306°
2026-05-06 20:37 22.65934 -75.06722 34055 ft 442 kts 306°
2026-05-06 20:38 22.69228 -75.12309 34048 ft 442 kts 306°
2026-05-06 20:38 22.72537 -75.17929 34053 ft 442 kts 306°
2026-05-06 20:39 22.75844 -75.23553 34055 ft 442 kts 306°
2026-05-06 20:39 22.79151 -75.29180 34047 ft 443 kts 306°
2026-05-06 20:40 22.82456 -75.34812 34053 ft 443 kts 306°
2026-05-06 20:40 22.85757 -75.40442 34055 ft 443 kts 306°
2026-05-06 20:41 22.89061 -75.46084 34067 ft 442 kts 306°
2026-05-06 20:41 22.92356 -75.51716 34051 ft 442 kts 306°
2026-05-06 20:42 22.95647 -75.57348 34055 ft 442 kts 306°
2026-05-06 20:42 22.98928 -75.62967 34050 ft 442 kts 306°
2026-05-06 20:43 23.02215 -75.68605 34053 ft 442 kts 306°
2026-05-06 20:43 23.05498 -75.74243 34056 ft 441 kts 306°
2026-05-06 20:44 23.08776 -75.79877 34054 ft 441 kts 306°
2026-05-06 20:44 23.12053 -75.85515 34050 ft 441 kts 306°
2026-05-06 20:45 23.15329 -75.91158 34048 ft 441 kts 306°
2026-05-06 20:45 23.18595 -75.96790 34054 ft 440 kts 306°
2026-05-06 20:46 23.21856 -76.02420 34052 ft 440 kts 306°
2026-05-06 20:46 23.25098 -76.08022 34056 ft 440 kts 306°
2026-05-06 20:47 23.28353 -76.13654 34052 ft 439 kts 306°
2026-05-06 20:47 23.31604 -76.19285 34054 ft 439 kts 306°
2026-05-06 20:48 23.34849 -76.24912 34054 ft 439 kts 306°
2026-05-06 20:48 23.38086 -76.30531 34053 ft 438 kts 306°
2026-05-06 20:49 23.41328 -76.36165 34052 ft 438 kts 306°
2026-05-06 20:49 23.44560 -76.41788 34051 ft 438 kts 306°
2026-05-06 20:50 23.47793 -76.47419 34052 ft 438 kts 306°
2026-05-06 20:50 23.51000 -76.53010 34060 ft 438 kts 306°
2026-05-06 20:51 23.54228 -76.58645 34059 ft 437 kts 306°
2026-05-06 20:51 23.57454 -76.64283 34058 ft 437 kts 306°
2026-05-06 20:52 23.60669 -76.69908 34055 ft 437 kts 306°
2026-05-06 20:52 23.63865 -76.75505 34055 ft 437 kts 305°
2026-05-06 20:53 23.67067 -76.81120 34058 ft 436 kts 305°
2026-05-06 20:53 23.70268 -76.86737 34053 ft 436 kts 305°
2026-05-06 20:54 23.73466 -76.92359 34054 ft 435 kts 305°
2026-05-06 20:54 23.76653 -76.97966 34055 ft 434 kts 305°
2026-05-06 20:55 23.79837 -77.03574 34053 ft 434 kts 305°
2026-05-06 20:55 23.83013 -77.09174 34052 ft 433 kts 305°
2026-05-06 20:56 23.86187 -77.14778 34053 ft 433 kts 305°
2026-05-06 20:56 23.89354 -77.20373 34055 ft 433 kts 305°
2026-05-06 20:57 23.92520 -77.25976 34055 ft 433 kts 304°
2026-05-06 20:57 23.95682 -77.31576 34055 ft 433 kts 304°
2026-05-06 20:58 23.98822 -77.37143 34053 ft 433 kts 304°
2026-05-06 20:58 24.01980 -77.42748 34052 ft 433 kts 304°
2026-05-06 20:59 24.05137 -77.48357 34049 ft 432 kts 304°
2026-05-06 20:59 24.08284 -77.53954 34046 ft 432 kts 304°
2026-05-06 21:00 24.11436 -77.59567 34048 ft 432 kts 304°
2026-05-06 21:00 24.14578 -77.65168 34047 ft 432 kts 304°
2026-05-06 21:01 24.17730 -77.70793 34050 ft 432 kts 304°
2026-05-06 21:01 24.20874 -77.76409 34049 ft 432 kts 304°
2026-05-06 21:02 24.24014 -77.82027 34049 ft 432 kts 304°
2026-05-06 21:02 24.27201 -77.87627 34040 ft 432 kts 306°
2026-05-06 21:03 24.30576 -77.93079 34047 ft 432 kts 306°
2026-05-06 21:03 24.33930 -77.98537 34047 ft 432 kts 306°
2026-05-06 21:04 24.37263 -78.03970 34045 ft 432 kts 306°
2026-05-06 21:04 24.40612 -78.09434 34041 ft 432 kts 306°
2026-05-06 21:05 24.43959 -78.14902 34044 ft 431 kts 306°
2026-05-06 21:05 24.47302 -78.20371 34048 ft 432 kts 306°
2026-05-06 21:06 24.50650 -78.25852 34044 ft 431 kts 306°
2026-05-06 21:06 24.53424 -78.30399 34047 ft 431 kts 305°
2026-05-06 21:07 24.57303 -78.36765 34051 ft 431 kts 305°
2026-05-06 21:07 24.60100 -78.41358 34049 ft 431 kts 305°
2026-05-06 21:08 24.63414 -78.46809 34045 ft 431 kts 305°
2026-05-06 21:08 24.66744 -78.52291 34047 ft 431 kts 305°
2026-05-06 21:09 24.70072 -78.57775 34045 ft 431 kts 305°
2026-05-06 21:09 24.73400 -78.63266 34047 ft 431 kts 305°
2026-05-06 21:10 24.76722 -78.68753 34049 ft 431 kts 305°
2026-05-06 21:10 24.80044 -78.74243 34048 ft 431 kts 305°
2026-05-06 21:11 24.83369 -78.79740 34050 ft 431 kts 305°
2026-05-06 21:11 24.86680 -78.85219 34051 ft 430 kts 304°
2026-05-06 21:12 24.89999 -78.90719 34020 ft 429 kts 304°
2026-05-06 21:12 24.91636 -78.93435 33294 ft 426 kts 304°
2026-05-06 21:12 24.93286 -78.96171 32282 ft 433 kts 305°
2026-05-06 21:12 24.94961 -78.98952 31397 ft 436 kts 305°
2026-05-06 21:13 24.96624 -79.01714 30605 ft 438 kts 305°
2026-05-06 21:13 24.98334 -79.04556 29665 ft 441 kts 305°
2026-05-06 21:13 25.00011 -79.07346 28796 ft 442 kts 305°
2026-05-06 21:13 25.01702 -79.10159 28163 ft 438 kts 305°
2026-05-06 21:14 25.03379 -79.12953 27411 ft 437 kts 305°
2026-05-06 21:14 25.05052 -79.15740 26767 ft 434 kts 305°
2026-05-06 21:14 25.06708 -79.18500 26140 ft 431 kts 305°
2026-05-06 21:14 25.08358 -79.21254 25492 ft 429 kts 305°
2026-05-06 21:15 25.09999 -79.23992 24842 ft 428 kts 305°
2026-05-06 21:15 25.11639 -79.26731 24188 ft 427 kts 306°
2026-05-06 21:15 25.13275 -79.29464 23527 ft 426 kts 306°
2026-05-06 21:15 25.14906 -79.32192 22812 ft 424 kts 306°
2026-05-06 21:16 25.16509 -79.34874 22539 ft 412 kts 306°
2026-05-06 21:16 25.18065 -79.37478 22304 ft 401 kts 306°
2026-05-06 21:16 25.19579 -79.40014 22080 ft 390 kts 306°
2026-05-06 21:16 25.21064 -79.42502 21561 ft 387 kts 306°
2026-05-06 21:17 25.22541 -79.44978 21110 ft 384 kts 306°
2026-05-06 21:17 25.23986 -79.47402 20661 ft 381 kts 306°
2026-05-06 21:17 25.25438 -79.49838 20201 ft 379 kts 306°
2026-05-06 21:17 25.26880 -79.52260 19759 ft 377 kts 306°
2026-05-06 21:18 25.28317 -79.54674 19302 ft 375 kts 306°
2026-05-06 21:18 25.29747 -79.57077 18862 ft 373 kts 306°
2026-05-06 21:18 25.31172 -79.59474 18430 ft 371 kts 306°
2026-05-06 21:18 25.32589 -79.61859 17942 ft 370 kts 306°
2026-05-06 21:19 25.33997 -79.64228 17493 ft 367 kts 306°
2026-05-06 21:19 25.35396 -79.66584 17062 ft 365 kts 306°
2026-05-06 21:19 25.36785 -79.68924 16603 ft 363 kts 306°
2026-05-06 21:19 25.38146 -79.71218 16173 ft 361 kts 306°
2026-05-06 21:20 25.39585 -79.73517 15772 ft 357 kts 309°
2026-05-06 21:20 25.41016 -79.75737 15442 ft 353 kts 308°
2026-05-06 21:20 25.42407 -79.77907 15109 ft 349 kts 308°
2026-05-06 21:20 25.43805 -79.80093 14770 ft 346 kts 308°
2026-05-06 21:21 25.45193 -79.82265 14420 ft 345 kts 309°
2026-05-06 21:21 25.46585 -79.84446 14073 ft 347 kts 309°
2026-05-06 21:21 25.47978 -79.86629 13707 ft 347 kts 309°
2026-05-06 21:21 25.49379 -79.88815 13281 ft 347 kts 308°
2026-05-06 21:22 25.50764 -79.90978 12934 ft 343 kts 308°
2026-05-06 21:22 25.52134 -79.93117 12607 ft 338 kts 308°
2026-05-06 21:22 25.53488 -79.95233 12268 ft 331 kts 308°
2026-05-06 21:22 25.54792 -79.97272 11948 ft 317 kts 308°
2026-05-06 21:23 25.56030 -79.99210 11656 ft 310 kts 308°
2026-05-06 21:23 25.57288 -80.01177 11333 ft 308 kts 308°
2026-05-06 21:23 25.58504 -80.03080 11015 ft 306 kts 308°
2026-05-06 21:23 25.59748 -80.05029 10623 ft 306 kts 307°
2026-05-06 21:24 25.60962 -80.06930 10278 ft 305 kts 307°
2026-05-06 21:24 25.62186 -80.08849 9937 ft 303 kts 307°
2026-05-06 21:24 25.63388 -80.10733 9560 ft 295 kts 307°
2026-05-06 21:24 25.64552 -80.12557 9217 ft 284 kts 307°
2026-05-06 21:25 25.65625 -80.14344 8957 ft 272 kts 299°
2026-05-06 21:25 25.66414 -80.16220 8695 ft 267 kts 296°
2026-05-06 21:25 25.67190 -80.18064 8442 ft 263 kts 297°
2026-05-06 21:25 25.67974 -80.19892 8195 ft 261 kts 297°
2026-05-06 21:26 25.68761 -80.21721 7997 ft 263 kts 296°
2026-05-06 21:26 25.69532 -80.23563 7723 ft 264 kts 296°
2026-05-06 21:26 25.70308 -80.25406 7465 ft 263 kts 296°
2026-05-06 21:26 25.71022 -80.27264 7191 ft 262 kts 284°
2026-05-06 21:27 25.71124 -80.29269 6919 ft 261 kts 268°
2026-05-06 21:27 25.71051 -80.31267 6686 ft 259 kts 268°
2026-05-06 21:27 25.70973 -80.33253 6427 ft 256 kts 268°
2026-05-06 21:27 25.70890 -80.35197 6170 ft 254 kts 267°
2026-05-06 21:28 25.70801 -80.37174 5910 ft 252 kts 267°
2026-05-06 21:28 25.70713 -80.39078 5666 ft 250 kts 267°
2026-05-06 21:28 25.70622 -80.41004 5421 ft 249 kts 267°
2026-05-06 21:28 25.70531 -80.42914 5181 ft 248 kts 267°
2026-05-06 21:29 25.70410 -80.44800 5051 ft 241 kts 265°
2026-05-06 21:29 25.70266 -80.46604 5005 ft 230 kts 265°
2026-05-06 21:29 25.70126 -80.48346 4830 ft 226 kts 265°
2026-05-06 21:29 25.69987 -80.50091 4552 ft 226 kts 265°
2026-05-06 21:30 25.69848 -80.51834 4272 ft 226 kts 265°
2026-05-06 21:30 25.69710 -80.53566 4054 ft 224 kts 265°
2026-05-06 21:30 25.69815 -80.55280 3957 ft 225 kts 290°
2026-05-06 21:30 25.70696 -80.56683 3852 ft 222 kts 322°
2026-05-06 21:31 25.72069 -80.57334 3767 ft 212 kts 349°
2026-05-06 21:31 25.73512 -80.57493 3628 ft 207 kts
2026-05-06 21:31 25.74808 -80.56881 3472 ft 204 kts 42°
2026-05-06 21:31 25.75748 -80.55705 3373 ft 204 kts 52°
2026-05-06 21:32 25.76615 -80.54458 3257 ft 204 kts 53°
2026-05-06 21:32 25.77816 -80.51705 3017 ft 201 kts 84°
2026-05-06 21:32 25.77876 -80.50186 3030 ft 189 kts 90°
2026-05-06 21:33 25.77898 -80.48754 2965 ft 183 kts 88°
2026-05-06 21:33 25.77949 -80.47352 2740 ft 181 kts 88°
2026-05-06 21:33 25.78005 -80.45987 2585 ft 169 kts 88°
2026-05-06 21:33 25.78057 -80.44745 2415 ft 154 kts 88°
2026-05-06 21:34 25.78109 -80.43580 2206 ft 149 kts 88°
2026-05-06 21:34 25.78155 -80.42445 1964 ft 145 kts 89°
2026-05-06 21:34 25.78200 -80.41328 1825 ft 144 kts 88°
2026-05-06 21:34 25.78248 -80.40228 1600 ft 142 kts 87°
2026-05-06 21:35 25.78294 -80.39144 1414 ft 139 kts 89°
2026-05-06 21:35 25.78335 -80.38064 1256 ft 141 kts 88°
2026-05-06 21:35 25.78386 -80.36986 1087 ft 140 kts 89°
2026-05-06 21:35 25.78425 -80.35904 930 ft 140 kts 88°
2026-05-06 21:36 25.78484 -80.34809 728 ft 144 kts 91°
2026-05-06 21:36 25.78512 -80.33716 507 ft 145 kts 90°
2026-05-06 21:36 25.78556 -80.32585 321 ft 146 kts 90°
2026-05-06 21:36 25.78610 -80.31501 141 ft 140 kts 89°
2026-05-06 21:37 25.78656 -80.30435 27 ft 131 kts 89°
2026-05-06 21:37 25.78690 -80.29572 19 ft 82 kts 87°
2026-05-06 21:37 25.78712 -80.29093 22 ft 54 kts 87°
2026-05-06 21:37 25.78738 -80.28814 20 ft 28 kts 78°
2026-05-06 21:38 25.78852 -80.28646 19 ft 29 kts 41°
2026-05-06 21:38 25.79001 -80.28525 19 ft 25 kts 34°
2026-05-06 21:38 25.79132 -80.28429 20 ft 17 kts 30°
2026-05-06 21:38 25.79236 -80.28438 23 ft 18 kts 305°
2026-05-06 21:39 25.79302 -80.28568 20 ft 21 kts 298°
2026-05-06 21:39 25.79381 -80.28721 17 ft 25 kts 300°
2026-05-06 21:39 25.79464 -80.28799 19 ft 14 kts 354°
2026-05-06 21:39 25.79570 -80.28805 23 ft 18 kts 358°
2026-05-06 21:40 25.79729 -80.28813 23 ft 27 kts 357°
2026-05-06 21:40 25.79891 -80.28819 24 ft 13 kts
2026-05-06 21:40 25.79935 -80.28739 28 ft 16 kts 88°
2026-05-06 21:40 25.79943 -80.28583 21 ft 24 kts 87°
2026-05-06 21:41 25.79951 -80.28384 18 ft 28 kts 88°
2026-05-06 21:41 25.79959 -80.28161 16 ft 30 kts 88°
2026-05-06 21:41 25.79969 -80.27919 15 ft 32 kts 86°
2026-05-06 21:41 25.79979 -80.27690 19 ft 29 kts 87°
2026-05-06 21:42 25.79954 -80.27543 20 ft 16 kts 153°
2026-05-06 21:42 25.79869 -80.27513 21 ft 10 kts 135°
2026-05-06 21:42 25.79832 -80.27472 22 ft 5 kts 160°
2026-05-06 21:42 25.79807 -80.27469 24 ft 2 kts 177°
2026-05-06 21:43 25.79800 -80.27469 24 ft 1 kts 177°
2026-05-06 21:43 25.79799 -80.27469 24 ft 0 kts 177°